Time,TemperatureF,DewpointF,PressureIn,WindDirection,WindDirectionDegrees,WindSpeedMPH,WindSpeedGustMPH,Humidity,HourlyPrecipIn,Conditions,Clouds,dailyrainin,SoftwareType,DateUTC
2013-03-24 00:14:00,28.8,20.0,30.12,NE,56,1.0,4.0,71,0.00,,,0.00,weatherlink.com 1.10,2013-03-24 04:14:00,
2013-03-24 00:29:00,28.5,21.0,30.12,ENE,60,0.0,2.0,72,0.00,,,0.00,weatherlink.com 1.10,2013-03-24 04:29:00,
2013-03-24 00:44:00,28.2,21.0,30.12,NW,321,0.0,2.0,73,0.00,,,0.00,weatherlink.com 1.10,2013-03-24 04:44:00,
2013-03-24 00:59:00,28.2,21.0,30.11,North,356,0.0,4.0,74,0.00,,,0.00,weatherlink.com 1.10,2013-03-24 04:59:00,
2013-03-24 01:14:00,28.1,21.0,30.12,East,89,0.0,4.0,74,0.00,,,0.00,weatherlink.com 1.10,2013-03-24 05:14:00,
2013-03-24 01:30:00,28.1,21.0,30.12,ESE,110,0.0,3.0,75,0.00,,,0.00,weatherlink.com 1.10,2013-03-24 05:30:00,
2013-03-24 01:45:00,27.8,21.0,30.11,NNE,15,0.0,3.0,75,0.00,,,0.00,weatherlink.com 1.10,2013-03-24 05:45:00,
2013-03-24 02:00:00,27.8,21.0,30.11,NNW,347,0.0,4.0,75,0.00,,,0.00,weatherlink.com 1.10,2013-03-24 06:00:00,
2013-03-24 02:15:00,27.8,21.0,30.11,ENE,78,0.0,5.0,76,0.00,,,0.00,weatherlink.com 1.10,2013-03-24 06:15:00,
2013-03-24 02:30:00,27.6,21.0,30.10,North,1,0.0,2.0,76,0.00,,,0.00,weatherlink.com 1.10,2013-03-24 06:30:00,
2013-03-24 02:45:00,27.8,21.0,30.09,ENE,60,1.0,3.0,76,0.00,,,0.00,weatherlink.com 1.10,2013-03-24 06:45:00,
2013-03-24 03:00:00,27.9,21.0,30.10,NNE,13,1.0,3.0,76,0.00,,,0.00,weatherlink.com 1.10,2013-03-24 07:00:00,
2013-03-24 03:15:00,28.2,22.0,30.11,East,83,0.0,4.0,76,0.00,,,0.00,weatherlink.com 1.10,2013-03-24 07:15:00,
2013-03-24 03:30:00,28.2,21.0,30.10,East,84,0.0,1.0,75,0.00,,,0.00,weatherlink.com 1.10,2013-03-24 07:30:00,
2013-03-24 03:45:00,28.4,21.0,30.10,East,98,1.0,1.0,75,0.00,,,0.00,weatherlink.com 1.10,2013-03-24 07:45:00,
2013-03-24 04:00:00,28.5,22.0,30.09,East,87,0.0,4.0,75,0.00,,,0.00,weatherlink.com 1.10,2013-03-24 08:00:00,
2013-03-24 04:15:00,28.7,22.0,30.09,NNW,340,0.0,3.0,75,0.00,,,0.00,weatherlink.com 1.10,2013-03-24 08:15:00,
2013-03-24 04:30:00,28.8,22.0,30.08,NE,55,2.0,4.0,75,0.00,,,0.00,weatherlink.com 1.10,2013-03-24 08:30:00,
2013-03-24 04:45:00,28.8,22.0,30.07,NE,51,2.0,6.0,74,0.00,,,0.00,weatherlink.com 1.10,2013-03-24 08:45:00,
2013-03-24 05:00:00,29.0,22.0,30.08,East,98,1.0,5.0,74,0.00,,,0.00,weatherlink.com 1.10,2013-03-24 09:00:00,
2013-03-24 05:15:00,29.0,22.0,30.06,ENE,77,1.0,4.0,74,0.00,,,0.00,weatherlink.com 1.10,2013-03-24 09:15:00,
2013-03-24 05:30:00,29.0,22.0,30.07,NE,53,0.0,-999.0,74,-99.99,,,0.00,weatherlink.com 1.10,2013-03-24 09:30:00,
2013-03-24 05:45:00,29.0,22.0,30.06,East,94,0.0,3.0,75,0.00,,,0.00,weatherlink.com 1.10,2013-03-24 09:45:00,
2013-03-24 06:00:00,29.0,22.0,30.05,ESE,115,0.0,3.0,75,0.00,,,0.00,weatherlink.com 1.10,2013-03-24 10:00:00,
2013-03-24 06:15:00,29.1,22.0,30.05,ENE,59,0.0,4.0,75,0.00,,,0.00,weatherlink.com 1.10,2013-03-24 10:15:00,
2013-03-24 06:30:00,29.3,22.0,30.04,ENE,71,1.0,4.0,74,0.00,,,0.00,weatherlink.com 1.10,2013-03-24 10:30:00,
2013-03-24 06:45:00,29.4,22.0,30.03,North,360,5.0,6.0,74,0.00,,,0.00,weatherlink.com 1.10,2013-03-24 10:45:00,
2013-03-24 07:00:00,29.5,22.0,30.03,NE,42,1.0,4.0,74,0.00,,,0.00,weatherlink.com 1.10,2013-03-24 11:00:00,
2013-03-24 07:15:00,29.7,22.0,30.02,ENE,72,0.0,5.0,73,0.00,,,0.00,weatherlink.com 1.10,2013-03-24 11:15:00,
2013-03-24 07:30:00,29.7,22.0,30.02,NNW,343,1.0,4.0,74,0.00,,,0.00,weatherlink.com 1.10,2013-03-24 11:30:00,
2013-03-24 07:45:00,29.7,22.0,30.02,NNE,32,0.0,3.0,74,0.00,,,0.00,weatherlink.com 1.10,2013-03-24 11:45:00,
2013-03-24 08:00:00,29.7,22.0,30.01,NNE,24,1.0,3.0,74,0.00,,,0.00,weatherlink.com 1.10,2013-03-24 12:00:00,
2013-03-24 08:15:00,29.8,22.0,30.01,NE,37,0.0,5.0,74,0.00,,,0.00,weatherlink.com 1.10,2013-03-24 12:15:00,
2013-03-24 08:30:00,29.8,22.0,30.01,East,95,1.0,3.0,74,0.00,,,0.00,weatherlink.com 1.10,2013-03-24 12:30:00,
2013-03-24 08:45:00,30.0,22.0,30.01,ENE,58,0.0,3.0,73,0.00,,,0.00,weatherlink.com 1.10,2013-03-24 12:45:00,
2013-03-24 09:00:00,30.0,23.0,30.00,NE,51,2.0,4.0,74,0.00,,,0.00,weatherlink.com 1.10,2013-03-24 13:00:00,
2013-03-24 09:15:00,30.3,23.0,30.00,NE,39,3.0,5.0,73,0.00,,,0.00,weatherlink.com 1.10,2013-03-24 13:15:00,
2013-03-24 09:30:00,30.6,23.0,29.98,ENE,68,1.0,6.0,72,0.00,,,0.00,weatherlink.com 1.10,2013-03-24 13:30:00,
2013-03-24 09:45:00,30.9,23.0,29.97,NE,53,2.0,6.0,71,0.00,,,0.00,weatherlink.com 1.10,2013-03-24 13:45:00,
2013-03-24 10:00:00,31.2,23.0,29.96,ENE,72,7.0,10.0,71,0.00,,,0.00,weatherlink.com 1.10,2013-03-24 14:00:00,
2013-03-24 10:15:00,31.3,23.0,29.96,NNE,13,3.0,9.0,70,0.00,,,0.00,weatherlink.com 1.10,2013-03-24 14:15:00,
2013-03-24 10:31:00,32.1,23.0,29.97,ENE,68,3.0,6.0,70,0.00,,,0.00,weatherlink.com 1.10,2013-03-24 14:31:00,
2013-03-24 10:46:00,32.2,23.0,29.96,SW,214,3.0,8.0,69,0.00,,,0.00,weatherlink.com 1.10,2013-03-24 14:46:00,
2013-03-24 11:16:00,32.9,23.0,29.93,East,86,4.0,10.0,67,0.00,,,0.00,weatherlink.com 1.10,2013-03-24 15:16:00,
2013-03-24 12:01:00,34.6,24.0,29.88,East,91,4.0,9.0,65,0.00,,,0.00,weatherlink.com 1.10,2013-03-24 16:01:00,
2013-03-24 12:16:00,34.7,24.0,29.88,East,79,4.0,11.0,64,0.00,,,0.00,weatherlink.com 1.10,2013-03-24 16:16:00,
2013-03-24 12:31:00,34.3,23.0,29.89,NE,52,4.0,10.0,63,0.00,,,0.00,weatherlink.com 1.10,2013-03-24 16:31:00,
2013-03-24 12:46:00,34.0,22.0,29.88,ESE,103,3.0,8.0,63,0.00,,,0.00,weatherlink.com 1.10,2013-03-24 16:46:00,
2013-03-24 13:01:00,34.1,23.0,29.88,East,83,3.0,9.0,63,0.00,,,0.00,weatherlink.com 1.10,2013-03-24 17:01:00,
2013-03-24 13:16:00,34.4,22.0,29.87,ENE,78,3.0,8.0,62,0.00,,,0.00,weatherlink.com 1.10,2013-03-24 17:16:00,
2013-03-24 13:31:00,35.0,23.0,29.86,North,1,2.0,11.0,61,0.00,,,0.00,weatherlink.com 1.10,2013-03-24 17:31:00,
2013-03-24 13:46:00,36.2,23.0,29.86,ENE,76,5.0,9.0,60,0.00,,,0.00,weatherlink.com 1.10,2013-03-24 17:46:00,
2013-03-24 14:01:00,36.0,22.0,29.85,ENE,65,2.0,9.0,58,0.00,,,0.00,weatherlink.com 1.10,2013-03-24 18:01:00,
2013-03-24 14:16:00,36.2,22.0,29.83,ENE,63,2.0,8.0,56,0.00,,,0.00,weatherlink.com 1.10,2013-03-24 18:16:00,
2013-03-24 14:31:00,36.3,21.0,29.82,NE,37,1.0,10.0,55,0.00,,,0.00,weatherlink.com 1.10,2013-03-24 18:31:00,
2013-03-24 14:46:00,36.5,21.0,29.80,NE,42,3.0,15.0,54,0.00,,,0.00,weatherlink.com 1.10,2013-03-24 18:46:00,
2013-03-24 15:01:00,36.9,21.0,29.80,ENE,77,5.0,9.0,54,0.00,,,0.00,weatherlink.com 1.10,2013-03-24 19:01:00,
2013-03-24 15:31:00,37.3,21.0,29.77,NNE,18,3.0,12.0,52,0.00,,,0.00,weatherlink.com 1.10,2013-03-24 19:31:00,
2013-03-24 15:46:00,37.2,21.0,29.76,ENE,72,1.0,13.0,53,0.00,,,0.00,weatherlink.com 1.10,2013-03-24 19:46:00,
2013-03-24 16:01:00,37.3,21.0,29.75,ENE,72,7.0,13.0,53,0.00,,,0.00,weatherlink.com 1.10,2013-03-24 20:01:00,
2013-03-24 16:17:00,37.6,22.0,29.73,ESE,108,5.0,11.0,54,0.00,,,0.00,weatherlink.com 1.10,2013-03-24 20:17:00,
2013-03-24 16:32:00,37.5,22.0,29.72,ENE,65,1.0,13.0,54,0.00,,,0.00,weatherlink.com 1.10,2013-03-24 20:32:00,
2013-03-24 16:47:00,37.3,22.0,29.72,East,98,4.0,12.0,55,0.00,,,0.00,weatherlink.com 1.10,2013-03-24 20:47:00,
2013-03-24 17:02:00,37.3,23.0,29.71,NE,51,12.0,12.0,56,0.00,,,0.00,weatherlink.com 1.10,2013-03-24 21:02:00,
2013-03-24 17:17:00,37.3,23.0,29.70,NE,51,7.0,12.0,57,0.00,,,0.00,weatherlink.com 1.10,2013-03-24 21:17:00,
2013-03-24 17:32:00,37.5,23.0,29.70,ENE,59,6.0,12.0,57,0.00,,,0.00,weatherlink.com 1.10,2013-03-24 21:32:00,
2013-03-24 17:47:00,37.2,23.0,29.71,NE,55,4.0,14.0,57,0.00,,,0.00,weatherlink.com 1.10,2013-03-24 21:47:00,
2013-03-24 18:02:00,37.0,23.0,29.71,SE,134,5.0,8.0,58,0.00,,,0.00,weatherlink.com 1.10,2013-03-24 22:02:00,
2013-03-24 18:17:00,36.6,23.0,29.70,ENE,58,5.0,8.0,59,0.00,,,0.00,weatherlink.com 1.10,2013-03-24 22:17:00,
2013-03-24 18:32:00,36.5,24.0,29.70,ENE,73,4.0,7.0,60,0.00,,,0.00,weatherlink.com 1.10,2013-03-24 22:32:00,
2013-03-24 18:47:00,36.2,23.0,29.71,NNE,27,2.0,8.0,60,0.00,,,0.00,weatherlink.com 1.10,2013-03-24 22:47:00,
2013-03-24 19:02:00,36.2,23.0,29.71,ENE,73,2.0,13.0,60,0.00,,,0.00,weatherlink.com 1.10,2013-03-24 23:02:00,
2013-03-24 19:17:00,36.0,24.0,29.72,NE,52,2.0,11.0,61,0.00,,,0.00,weatherlink.com 1.10,2013-03-24 23:17:00,
2013-03-24 19:32:00,35.9,23.0,29.73,ESE,108,3.0,8.0,61,0.00,,,0.00,weatherlink.com 1.10,2013-03-24 23:32:00,
2013-03-24 19:47:00,35.9,23.0,29.72,North,351,4.0,11.0,61,0.00,,,0.00,weatherlink.com 1.10,2013-03-24 23:47:00,
2013-03-24 20:02:00,35.8,24.0,29.73,ENE,75,1.0,5.0,62,0.00,,,0.00,weatherlink.com 1.10,2013-03-25 00:02:00,
2013-03-24 20:17:00,35.3,25.0,29.73,ENE,58,2.0,7.0,65,0.00,,,0.00,weatherlink.com 1.10,2013-03-25 00:17:00,
2013-03-24 20:32:00,34.9,25.0,29.72,East,89,3.0,9.0,67,0.00,,,0.00,weatherlink.com 1.10,2013-03-25 00:32:00,
2013-03-24 20:47:00,34.6,24.0,29.73,ENE,71,1.0,11.0,66,0.00,,,0.00,weatherlink.com 1.10,2013-03-25 00:47:00,
2013-03-24 21:02:00,34.3,24.0,29.72,NNW,328,6.0,6.0,65,0.00,,,0.00,weatherlink.com 1.10,2013-03-25 01:02:00,
2013-03-24 21:17:00,34.4,23.0,29.73,East,85,2.0,9.0,64,0.00,,,0.00,weatherlink.com 1.10,2013-03-25 01:17:00,
2013-03-24 21:32:00,34.4,24.0,29.74,East,96,3.0,6.0,65,0.00,,,0.00,weatherlink.com 1.10,2013-03-25 01:32:00,
2013-03-24 21:47:00,34.0,23.0,29.75,East,88,2.0,12.0,65,0.00,,,0.00,weatherlink.com 1.10,2013-03-25 01:47:00,
2013-03-24 22:02:00,33.7,23.0,29.75,ENE,68,1.0,7.0,65,0.00,,,0.00,weatherlink.com 1.10,2013-03-25 02:02:00,
2013-03-24 22:17:00,33.4,23.0,29.75,SE,127,3.0,12.0,65,0.00,,,0.00,weatherlink.com 1.10,2013-03-25 02:17:00,
2013-03-24 22:32:00,33.2,23.0,29.75,NE,48,2.0,6.0,65,0.00,,,0.00,weatherlink.com 1.10,2013-03-25 02:32:00,
2013-03-24 22:47:00,32.9,22.0,29.75,East,84,3.0,10.0,65,0.00,,,0.00,weatherlink.com 1.10,2013-03-25 02:47:00,
2013-03-24 23:02:00,32.7,22.0,29.74,East,89,4.0,7.0,65,0.00,,,0.00,weatherlink.com 1.10,2013-03-25 03:02:00,
2013-03-24 23:17:00,32.5,22.0,29.73,NNW,333,2.0,9.0,66,0.00,,,0.00,weatherlink.com 1.10,2013-03-25 03:17:00,
2013-03-24 23:32:00,32.2,23.0,29.72,East,90,1.0,6.0,68,0.00,,,0.00,weatherlink.com 1.10,2013-03-25 03:32:00,
2013-03-24 23:47:00,32.1,23.0,29.73,North,352,0.0,13.0,68,0.00,,,0.00,weatherlink.com 1.10,2013-03-25 03:47:00,